| time (UTC) | temp C | wind direction | speed KPH | gust KPH | rain 1hr cm | rain 24hr cm | rain mn cm | humidity % | barometer mb |
| 20260508073014 | 2 | 360 | 0.0 | 0.0 | 0.00 | 0.00 | 0.00 | 93 | 1017.7 |
| 20260508072511 | 2 | 360 | 0.0 | 0.0 | 0.00 | 0.00 | 0.00 | 93 | 1017.7 |
| 20260508072010 | 2 | 360 | 0.0 | 0.0 | 0.00 | 0.00 | 0.00 | 93 | 1017.6 |
| 20260508071512 | 2 | 360 | 0.0 | 0.0 | 0.00 | 0.00 | 0.00 | 93 | 1017.7 |
| 20260508071009 | 2 | 360 | 0.0 | 0.0 | 0.00 | 0.00 | 0.00 | 93 | 1017.7 |
| 20260508070510 | 2 | 360 | 0.0 | 0.0 | 0.00 | 0.00 | 0.00 | 93 | 1017.8 |
| 20260508070012 | 2 | 360 | 0.0 | 0.0 | 0.00 | 0.00 | 0.00 | 93 | 1017.9 |
| 20260508065508 | 2 | 360 | 0.0 | 0.0 | 0.00 | 0.00 | 0.00 | 93 | 1017.8 |
| 20260508065008 | 2 | 360 | 0.0 | 0.0 | 0.00 | 0.00 | 0.00 | 93 | 1017.8 |
| 20260508064524 | 2 | 360 | 0.0 | 0.0 | 0.00 | 0.00 | 0.00 | 93 | 1017.8 |
| 20260508064008 | 2 | 360 | 0.0 | 0.0 | 0.00 | 0.00 | 0.00 | 93 | 1017.8 |
| 20260508063507 | 2 | 360 | 0.0 | 0.0 | 0.00 | 0.00 | 0.00 | 93 | 1017.7 |
| 20260508063006 | 2 | 360 | 0.0 | 0.0 | 0.00 | 0.00 | 0.00 | 93 | 1017.7 |
| 20260508062508 | 2 | 360 | 0.0 | 0.0 | 0.00 | 0.00 | 0.00 | 93 | 1017.7 |
| 20260508062005 | 3 | 360 | 0.0 | 0.0 | 0.00 | 0.00 | 0.00 | 93 | 1017.8 |
| 20260508061506 | 3 | 360 | 0.0 | 0.0 | 0.00 | 0.00 | 0.00 | 93 | 1017.7 |
| 20260508061004 | 3 | 360 | 0.0 | 0.0 | 0.00 | 0.00 | 0.00 | 92 | 1017.8 |
| 20260508060504 | 3 | 360 | 0.0 | 0.0 | 0.00 | 0.00 | 0.00 | 92 | 1017.7 |
| 20260508060003 | 3 | 360 | 0.0 | 0.0 | 0.00 | 0.03 | 0.00 | 92 | 1017.7 |
| 20260508055504 | 3 | 360 | 0.0 | 0.0 | 0.00 | 0.03 | 0.00 | 92 | 1017.7 |
| 20260508055002 | 3 | 360 | 0.0 | 0.0 | 0.00 | 0.03 | 0.00 | 92 | 1017.6 |
| 20260508054502 | 3 | 360 | 0.0 | 0.0 | 0.00 | 0.03 | 0.00 | 92 | 1017.7 |
| 20260508054001 | 3 | 360 | 0.0 | 0.0 | 0.00 | 0.03 | 0.00 | 92 | 1017.7 |
| 20260508053501 | 3 | 360 | 0.0 | 0.0 | 0.00 | 0.03 | 0.00 | 92 | 1017.8 |
| 20260508053106 | 3 | 360 | 0.0 | 0.0 | 0.00 | 0.03 | 0.00 | 92 | 1017.8 |
| 20260508052600 | 3 | 360 | 0.0 | 0.0 | 0.00 | 0.03 | 0.00 | 92 | 1017.8 |
| 20260508052101 | 3 | 360 | 0.0 | 0.0 | 0.00 | 0.03 | 0.00 | 92 | 1017.8 |
| 20260508051558 | 3 | 360 | 0.0 | 0.0 | 0.00 | 0.03 | 0.00 | 92 | 1017.8 |
| 20260508051058 | 3 | 360 | 0.0 | 0.0 | 0.00 | 0.03 | 0.00 | 91 | 1017.9 |
| 20260508050557 | 3 | 360 | 0.0 | 0.0 | 0.00 | 0.03 | 0.00 | 91 | 1017.9 |
| 20260508050059 | 3 | 360 | 0.0 | 0.0 | 0.00 | 0.03 | 0.00 | 91 | 1017.8 |
| 20260508045555 | 3 | 360 | 0.0 | 0.0 | 0.00 | 0.05 | 0.00 | 91 | 1017.8 |
| 20260508045058 | 3 | 360 | 0.0 | 0.0 | 0.00 | 0.05 | 0.00 | 91 | 1017.8 |
| 20260508044554 | 4 | 360 | 0.0 | 0.0 | 0.00 | 0.05 | 0.00 | 91 | 1017.8 |
| 20260508044056 | 4 | 360 | 0.0 | 0.0 | 0.00 | 0.05 | 0.00 | 91 | 1017.7 |
| 20260508043552 | 4 | 360 | 0.0 | 0.0 | 0.00 | 0.05 | 0.00 | 90 | 1017.7 |
| 20260508043052 | 4 | 360 | 0.0 | 0.0 | 0.00 | 0.05 | 0.00 | 90 | 1017.6 |
| 20260508042552 | 4 | 360 | 0.0 | 0.0 | 0.00 | 0.05 | 0.00 | 90 | 1017.7 |
| 20260508042054 | 4 | 360 | 0.0 | 0.0 | 0.00 | 0.05 | 0.00 | 89 | 1017.6 |
| 20260508041552 | 4 | 360 | 0.0 | 0.0 | 0.00 | 0.05 | 0.00 | 89 | 1017.5 |
| 20260508041050 | 5 | 360 | 0.0 | 0.0 | 0.00 | 0.05 | 0.00 | 89 | 1017.6 |
| 20260508040548 | 5 | 360 | 0.0 | 0.0 | 0.00 | 0.05 | 0.00 | 89 | 1017.5 |
| 20260508040048 | 5 | 360 | 0.0 | 1.6 | 0.00 | 0.05 | 0.00 | 88 | 1017.5 |
| 20260508035547 | 5 | 360 | 0.0 | 1.6 | 0.00 | 0.05 | 0.05 | 88 | 1017.4 |
| 20260508035046 | 5 | 360 | 0.0 | 1.6 | 0.00 | 0.05 | 0.05 | 88 | 1017.5 |
| 20260508034545 | 5 | 360 | 0.0 | 0.0 | 0.00 | 0.05 | 0.05 | 87 | 1017.5 |
| 20260508034044 | 5 | 360 | 0.0 | 1.6 | 0.00 | 0.05 | 0.05 | 87 | 1017.4 |
| 20260508033543 | 5 | 360 | 0.0 | 1.6 | 0.00 | 0.05 | 0.05 | 87 | 1017.4 |
| 20260508033043 | 5 | 360 | 0.0 | 0.0 | 0.00 | 0.05 | 0.05 | 86 | 1017.5 |
| 20260508032542 | 5 | 360 | 0.0 | 1.6 | 0.00 | 0.05 | 0.05 | 86 | 1017.4 |
| 20260508032044 | 6 | 360 | 0.0 | 3.2 | 0.00 | 0.05 | 0.05 | 86 | 1017.3 |
| 20260508031541 | 6 | 360 | 0.0 | 3.2 | 0.00 | 0.05 | 0.05 | 86 | 1017.3 |
| 20260508031041 | 6 | 360 | 0.0 | 0.0 | 0.00 | 0.05 | 0.05 | 86 | 1017.3 |
| 20260508030540 | 6 | 360 | 0.0 | 1.6 | 0.00 | 0.05 | 0.05 | 85 | 1017.2 |
| 20260508030041 | 6 | 360 | 0.0 | 1.6 | 0.00 | 0.05 | 0.05 | 84 | 1017.3 |
| 20260508025537 | 6 | 360 | 0.0 | 0.0 | 0.00 | 0.05 | 0.05 | 83 | 1017.3 |
| 20260508025037 | 6 | 360 | 0.0 | 1.6 | 0.00 | 0.05 | 0.05 | 83 | 1017.2 |
| 20260508024544 | 6 | 360 | 0.0 | 1.6 | 0.00 | 0.05 | 0.05 | 82 | 1017.1 |
| 20260508024036 | 6 | 360 | 0.0 | 3.2 | 0.00 | 0.05 | 0.05 | 81 | 1016.9 |
| 20260508023534 | 7 | 360 | 0.0 | 3.2 | 0.00 | 0.05 | 0.05 | 79 | 1017.0 |
| 20260508023036 | 7 | 360 | 0.0 | 3.2 | 0.00 | 0.05 | 0.05 | 76 | 1016.9 |
| 20260508022532 | 7 | 360 | 0.0 | 3.2 | 0.00 | 0.05 | 0.05 | 74 | 1016.8 |
| 20260508022031 | 7 | 360 | 0.0 | 3.2 | 0.00 | 0.05 | 0.05 | 73 | 1016.7 |
| 20260508021531 | 7 | 360 | 0.0 | 1.6 | 0.00 | 0.05 | 0.05 | 73 | 1016.5 |
| 20260508021032 | 7 | 360 | 0.0 | 3.2 | 0.00 | 0.05 | 0.05 | 73 | 1016.5 |
| 20260508020529 | 7 | 360 | 0.0 | 3.2 | 0.00 | 0.05 | 0.05 | 75 | 1016.4 |
| 20260508020028 | 8 | 360 | 0.0 | 0.0 | 0.00 | 0.05 | 0.05 | 76 | 1016.4 |
| 20260508015528 | 8 | 360 | 0.0 | 1.6 | 0.00 | 0.05 | 0.05 | 75 | 1016.4 |
| 20260508015027 | 8 | 360 | 0.0 | 3.2 | 0.00 | 0.05 | 0.05 | 75 | 1016.3 |
| 20260508014532 | 8 | 360 | 0.0 | 3.2 | 0.00 | 0.05 | 0.05 | 73 | 1016.3 |
| 20260508014027 | 8 | 360 | 0.0 | 1.6 | 0.00 | 0.05 | 0.05 | 73 | 1016.2 |
| 20260508013530 | 8 | 360 | 0.0 | 1.6 | 0.00 | 0.05 | 0.05 | 74 | 1016.2 |
| 20260508013026 | 9 | 360 | 0.0 | 3.2 | 0.00 | 0.05 | 0.05 | 70 | 1016.2 |
| 20260508012526 | 9 | 360 | 0.0 | 3.2 | 0.00 | 0.05 | 0.05 | 68 | 1016.1 |
| 20260508012028 | 9 | 360 | 0.0 | 3.2 | 0.00 | 0.05 | 0.05 | 72 | 1015.9 |
| 20260508011533 | 10 | 360 | 1.6 | 3.2 | 0.00 | 0.05 | 0.05 | 70 | 1015.8 |
| 20260508011025 | 10 | 360 | 0.0 | 3.2 | 0.00 | 0.05 | 0.05 | 69 | 1015.5 |
| 20260508010525 | 10 | 360 | 0.0 | 3.2 | 0.00 | 0.05 | 0.05 | 66 | 1015.4 |
| 20260508010030 | 11 | 360 | 1.6 | 3.2 | 0.00 | 0.05 | 0.05 | 64 | 1015.5 |
| 20260508005534 | 11 | 360 | 0.0 | 1.6 | 0.00 | 0.05 | 0.05 | 62 | 1015.3 |
| 20260508005025 | 12 | 360 | 0.0 | 3.2 | 0.00 | 0.05 | 0.05 | 60 | 1015.3 |
| 20260508004524 | 12 | 360 | 0.0 | 3.2 | 0.00 | 0.05 | 0.05 | 47 | 1015.2 |
| 20260508004025 | 13 | 360 | 0.0 | 3.2 | 0.00 | 0.05 | 0.05 | 44 | 1015.2 |
| 20260508003524 | 13 | 360 | 0.0 | 3.2 | 0.00 | 0.05 | 0.05 | 43 | 1015.1 |
| 20260508003034 | 13 | 360 | 1.6 | 6.4 | 0.00 | 0.05 | 0.05 | 43 | 1015.1 |
| 20260508002525 | 13 | 360 | 3.2 | 6.4 | 0.00 | 0.05 | 0.05 | 43 | 1015.1 |
| 20260508002023 | 13 | 360 | 1.6 | 4.8 | 0.00 | 0.05 | 0.05 | 42 | 1015.0 |
| 20260508001523 | 14 | 360 | 0.0 | 4.8 | 0.00 | 0.05 | 0.05 | 42 | 1015.0 |
| 20260508001023 | 14 | 360 | 1.6 | 6.4 | 0.00 | 0.05 | 0.05 | 40 | 1014.7 |
| 20260508000525 | 14 | 360 | 3.2 | 6.4 | 0.00 | 0.05 | 0.05 | 43 | 1014.7 |
| 20260508000025 | 15 | 360 | 1.6 | 8.0 | 0.00 | 0.05 | 0.05 | 39 | 1014.6 |
| 20260507235523 | 15 | 360 | 3.2 | 12.9 | 0.00 | 0.05 | 0.05 | 39 | 1014.6 |
| 20260507235027 | 15 | 360 | 3.2 | 12.9 | 0.00 | 0.05 | 0.05 | 39 | 1014.4 |
| 20260507234522 | 15 | 360 | 4.8 | 9.7 | 0.00 | 0.05 | 0.05 | 40 | 1014.4 |
| 20260507234023 | 15 | 360 | 3.2 | 8.0 | 0.00 | 0.05 | 0.05 | 44 | 1014.5 |
| 20260507233521 | 15 | 360 | 1.6 | 8.0 | 0.00 | 0.05 | 0.05 | 41 | 1014.4 |
| 20260507233021 | 15 | 360 | 1.6 | 4.8 | 0.00 | 0.05 | 0.05 | 41 | 1014.5 |
| 20260507232520 | 15 | 360 | 1.6 | 6.4 | 0.00 | 0.05 | 0.05 | 45 | 1014.5 |
| 20260507232020 | 16 | 360 | 1.6 | 12.9 | 0.00 | 0.05 | 0.05 | 44 | 1014.3 |
| 20260507231520 | 16 | 360 | 3.2 | 12.9 | 0.00 | 0.05 | 0.05 | 41 | 1014.2 |
| 20260507231020 | 16 | 360 | 1.6 | 6.4 | 0.00 | 0.05 | 0.05 | 43 | 1014.1 |
| 20260507230523 | 16 | 360 | 3.2 | 6.4 | 0.00 | 0.05 | 0.05 | 41 | 1014.2 |
| 20260507230020 | 16 | 360 | 3.2 | 8.0 | 0.00 | 0.05 | 0.05 | 40 | 1014.1 |
| 20260507225519 | 16 | 360 | 3.2 | 8.0 | 0.00 | 0.05 | 0.05 | 42 | 1014.0 |
| 20260507225020 | 16 | 360 | 4.8 | 8.0 | 0.00 | 0.05 | 0.05 | 41 | 1013.9 |
| 20260507224519 | 16 | 360 | 1.6 | 8.0 | 0.00 | 0.05 | 0.05 | 41 | 1013.9 |
| 20260507224019 | 16 | 360 | 4.8 | 8.0 | 0.00 | 0.05 | 0.05 | 40 | 1013.7 |
| 20260507223518 | 16 | 360 | 3.2 | 12.9 | 0.00 | 0.05 | 0.05 | 42 | 1013.8 |
| 20260507223019 | 16 | 360 | 4.8 | 12.9 | 0.00 | 0.05 | 0.05 | 40 | 1013.7 |
| 20260507222519 | 16 | 360 | 3.2 | 8.0 | 0.00 | 0.05 | 0.05 | 42 | 1013.8 |
| 20260507222017 | 16 | 360 | 3.2 | 14.5 | 0.00 | 0.05 | 0.05 | 42 | 1013.8 |
| 20260507221517 | 16 | 360 | 3.2 | 14.5 | 0.00 | 0.05 | 0.05 | 42 | 1013.7 |
| 20260507221018 | 16 | 360 | 1.6 | 17.7 | 0.00 | 0.05 | 0.05 | 42 | 1013.6 |
| 20260507220518 | 16 | 360 | 4.8 | 17.7 | 0.00 | 0.05 | 0.05 | 40 | 1013.6 |
| 20260507220017 | 16 | 360 | 3.2 | 6.4 | 0.00 | 0.05 | 0.05 | 39 | 1013.6 |
| 20260507215517 | 16 | 360 | 1.6 | 6.4 | 0.00 | 0.05 | 0.05 | 42 | 1013.5 |
| 20260507215015 | 16 | 360 | 3.2 | 9.7 | 0.00 | 0.05 | 0.05 | 41 | 1013.5 |
| 20260507214516 | 17 | 360 | 4.8 | 12.9 | 0.00 | 0.05 | 0.05 | 40 | 1013.3 |
| 20260507214018 | 17 | 360 | 4.8 | 12.9 | 0.00 | 0.05 | 0.05 | 39 | 1013.2 |
| 20260507213519 | 17 | 360 | 4.8 | 9.7 | 0.00 | 0.05 | 0.05 | 40 | 1013.2 |
| 20260507213021 | 17 | 360 | 3.2 | 12.9 | 0.00 | 0.05 | 0.05 | 43 | 1013.1 |
| 20260507212515 | 17 | 360 | 3.2 | 12.9 | 0.00 | 0.05 | 0.05 | 41 | 1013.0 |
| 20260507212015 | 17 | 360 | 3.2 | 9.7 | 0.00 | 0.05 | 0.05 | 41 | 1013.1 |
| 20260507211515 | 17 | 360 | 4.8 | 12.9 | 0.00 | 0.05 | 0.05 | 42 | 1013.0 |
| 20260507211014 | 17 | 360 | 4.8 | 14.5 | 0.00 | 0.05 | 0.05 | 41 | 1013.0 |
| 20260507210516 | 17 | 360 | 4.8 | 14.5 | 0.00 | 0.05 | 0.05 | 43 | 1012.9 |
| 20260507210113 | 17 | 360 | 4.8 | 9.7 | 0.00 | 0.05 | 0.05 | 44 | 1012.8 |
| 20260507205513 | 16 | 360 | 1.6 | 6.4 | 0.00 | 0.05 | 0.05 | 47 | 1012.8 |
| 20260507205013 | 16 | 360 | 3.2 | 8.0 | 0.00 | 0.05 | 0.05 | 44 | 1012.9 |
| 20260507204512 | 16 | 360 | 3.2 | 8.0 | 0.00 | 0.05 | 0.05 | 45 | 1013.0 |
| 20260507204012 | 16 | 360 | 3.2 | 8.0 | 0.00 | 0.05 | 0.05 | 46 | 1012.9 |
| 20260507203516 | 16 | 360 | 3.2 | 9.7 | 0.00 | 0.05 | 0.05 | 44 | 1012.9 |
| 20260507203013 | 16 | 360 | 4.8 | 9.7 | 0.00 | 0.05 | 0.05 | 45 | 1013.0 |
| 20260507202511 | 16 | 360 | 3.2 | 8.0 | 0.00 | 0.05 | 0.05 | 44 | 1012.9 |
| 20260507202010 | 16 | 360 | 3.2 | 8.0 | 0.00 | 0.05 | 0.05 | 43 | 1012.7 |
| 20260507201511 | 17 | 360 | 3.2 | 8.0 | 0.00 | 0.05 | 0.05 | 46 | 1012.7 |
| 20260507201012 | 16 | 360 | 3.2 | 9.7 | 0.00 | 0.05 | 0.05 | 44 | 1012.9 |
| 20260507200508 | 17 | 360 | 3.2 | 9.7 | 0.00 | 0.05 | 0.05 | 42 | 1013.0 |
| 20260507200017 | 17 | 360 | 4.8 | 9.7 | 0.00 | 0.05 | 0.05 | 45 | 1013.2 |
| 20260507195507 | 17 | 360 | 4.8 | 9.7 | 0.00 | 0.05 | 0.05 | 42 | 1013.3 |
| 20260507195007 | 17 | 360 | 1.6 | 8.0 | 0.00 | 0.05 | 0.05 | 45 | 1013.2 |
| 20260507194506 | 17 | 360 | 3.2 | 12.9 | 0.00 | 0.05 | 0.05 | 42 | 1013.3 |
| 20260507194005 | 17 | 360 | 4.8 | 12.9 | 0.00 | 0.05 | 0.05 | 44 | 1013.5 |
| 20260507193504 | 16 | 360 | 1.6 | 9.7 | 0.00 | 0.05 | 0.05 | 48 | 1013.6 |
| 20260507193006 | 16 | 360 | 4.8 | 12.9 | 0.00 | 0.05 | 0.05 | 45 | 1013.6 |
| 20260507192504 | 16 | 360 | 4.8 | 12.9 | 0.00 | 0.05 | 0.05 | 48 | 1013.8 |
| 20260507192004 | 17 | 360 | 4.8 | 9.7 | 0.00 | 0.05 | 0.05 | 46 | 1013.7 |
| 20260507191503 | 17 | 360 | 3.2 | 9.7 | 0.00 | 0.05 | 0.05 | 43 | 1013.6 |
| 20260507191003 | 16 | 360 | 4.8 | 16.1 | 0.00 | 0.05 | 0.05 | 46 | 1013.6 |
| 20260507190503 | 16 | 360 | 6.4 | 16.1 | 0.00 | 0.05 | 0.05 | 44 | 1013.7 |
| 20260507190008 | 17 | 360 | 3.2 | 8.0 | 0.00 | 0.05 | 0.05 | 45 | 1013.6 |
| 20260507185503 | 17 | 360 | 3.2 | 9.7 | 0.00 | 0.05 | 0.05 | 45 | 1013.6 |
| 20260507185001 | 17 | 360 | 3.2 | 9.7 | 0.00 | 0.05 | 0.05 | 45 | 1013.8 |
| 20260507184600 | 17 | 360 | 3.2 | 8.0 | 0.00 | 0.05 | 0.05 | 45 | 1013.9 |
| 20260507184100 | 16 | 360 | 3.2 | 8.0 | 0.00 | 0.05 | 0.05 | 49 | 1013.8 |
| 20260507183559 | 16 | 360 | 3.2 | 9.7 | 0.00 | 0.05 | 0.05 | 48 | 1013.9 |
| 20260507183101 | 16 | 360 | 4.8 | 9.7 | 0.00 | 0.05 | 0.05 | 47 | 1013.9 |
| 20260507182559 | 16 | 360 | 3.2 | 9.7 | 0.00 | 0.05 | 0.05 | 46 | 1013.7 |
| 20260507182058 | 16 | 360 | 4.8 | 9.7 | 0.00 | 0.05 | 0.05 | 46 | 1013.7 |
| 20260507181557 | 16 | 360 | 3.2 | 8.0 | 0.00 | 0.05 | 0.05 | 49 | 1013.9 |
| 20260507181057 | 15 | 360 | 3.2 | 6.4 | 0.00 | 0.05 | 0.05 | 52 | 1014.0 |
| 20260507180556 | 15 | 360 | 3.2 | 6.4 | 0.00 | 0.05 | 0.05 | 49 | 1014.1 |
| 20260507180104 | 15 | 360 | 3.2 | 8.0 | 0.00 | 0.05 | 0.05 | 51 | 1014.1 |
| 20260507175555 | 16 | 360 | 3.2 | 6.4 | 0.00 | 0.05 | 0.05 | 48 | 1014.0 |
| 20260507175055 | 15 | 360 | 1.6 | 6.4 | 0.00 | 0.05 | 0.05 | 49 | 1014.2 |
| 20260507174555 | 15 | 360 | 1.6 | 12.9 | 0.00 | 0.05 | 0.05 | 49 | 1014.3 |
| 20260507174054 | 16 | 360 | 1.6 | 12.9 | 0.00 | 0.05 | 0.05 | 47 | 1014.2 |
| 20260507173553 | 16 | 360 | 3.2 | 6.4 | 0.00 | 0.05 | 0.05 | 47 | 1014.3 |
| 20260507173056 | 15 | 360 | 3.2 | 9.7 | 0.00 | 0.05 | 0.05 | 51 | 1014.5 |
| 20260507172554 | 15 | 360 | 4.8 | 9.7 | 0.00 | 0.05 | 0.05 | 50 | 1014.5 |
| 20260507172053 | 15 | 360 | 1.6 | 8.0 | 0.00 | 0.05 | 0.05 | 52 | 1014.5 |
| 20260507171556 | 15 | 360 | 4.8 | 8.0 | 0.00 | 0.05 | 0.05 | 49 | 1014.5 |
| 20260507171052 | 15 | 360 | 1.6 | 8.0 | 0.00 | 0.05 | 0.05 | 52 | 1014.4 |
| 20260507170555 | 15 | 360 | 3.2 | 8.0 | 0.00 | 0.05 | 0.05 | 49 | 1014.6 |
| 20260507170051 | 15 | 360 | 3.2 | 8.0 | 0.00 | 0.05 | 0.05 | 52 | 1014.7 |
| 20260507165550 | 15 | 360 | 1.6 | 8.0 | 0.00 | 0.05 | 0.05 | 51 | 1014.7 |
| 20260507165052 | 15 | 360 | 3.2 | 8.0 | 0.00 | 0.05 | 0.05 | 52 | 1014.9 |
| 20260507164549 | 15 | 360 | 3.2 | 4.8 | 0.00 | 0.05 | 0.05 | 54 | 1014.9 |
| 20260507164049 | 15 | 360 | 1.6 | 6.4 | 0.00 | 0.05 | 0.05 | 52 | 1015.0 |
| 20260507163548 | 15 | 360 | 3.2 | 6.4 | 0.00 | 0.05 | 0.05 | 53 | 1015.2 |
| 20260507163050 | 15 | 360 | 1.6 | 6.4 | 0.00 | 0.05 | 0.05 | 49 | 1015.3 |
| 20260507162548 | 15 | 360 | 3.2 | 6.4 | 0.00 | 0.05 | 0.05 | 51 | 1015.3 |
| 20260507162051 | 16 | 360 | 1.6 | 6.4 | 0.00 | 0.05 | 0.05 | 47 | 1015.2 |
| 20260507161546 | 16 | 360 | 1.6 | 6.4 | 0.00 | 0.05 | 0.05 | 50 | 1015.1 |
| 20260507161044 | 16 | 360 | 3.2 | 8.0 | 0.00 | 0.05 | 0.05 | 51 | 1015.3 |
| 20260507160547 | 15 | 360 | 3.2 | 8.0 | 0.00 | 0.05 | 0.05 | 52 | 1015.4 |
| 20260507160051 | 15 | 360 | 3.2 | 6.4 | 0.00 | 0.05 | 0.05 | 52 | 1015.4 |
| 20260507155543 | 14 | 360 | 1.6 | 6.4 | 0.00 | 0.08 | 0.05 | 54 | 1015.5 |
| 20260507155045 | 14 | 360 | 3.2 | 6.4 | 0.00 | 0.08 | 0.05 | 56 | 1015.6 |
| 20260507154543 | 15 | 360 | 3.2 | 8.0 | 0.00 | 0.08 | 0.05 | 56 | 1015.5 |
| 20260507154041 | 15 | 360 | 3.2 | 9.7 | 0.00 | 0.08 | 0.05 | 54 | 1015.5 |
| 20260507153545 | 15 | 360 | 1.6 | 9.7 | 0.00 | 0.08 | 0.05 | 53 | 1015.6 |
| 20260507153049 | 15 | 360 | 1.6 | 6.4 | 0.00 | 0.08 | 0.05 | 54 | 1015.6 |
| 20260507152541 | 16 | 360 | 0.0 | 6.4 | 0.00 | 0.08 | 0.05 | 54 | 1015.6 |
| 20260507152038 | 15 | 360 | 1.6 | 12.9 | 0.00 | 0.08 | 0.05 | 53 | 1015.6 |
| 20260507151539 | 15 | 360 | 1.6 | 12.9 | 0.00 | 0.08 | 0.05 | 58 | 1015.6 |
| 20260507151035 | 15 | 360 | 1.6 | 8.0 | 0.00 | 0.08 | 0.05 | 58 | 1015.8 |
| 20260507150538 | 15 | 360 | 1.6 | 6.4 | 0.00 | 0.08 | 0.05 | 59 | 1015.7 |
| 20260507150033 | 14 | 360 | 1.6 | 6.4 | 0.00 | 0.08 | 0.05 | 59 | 1015.6 |
| 20260507145532 | 13 | 360 | 1.6 | 6.4 | 0.00 | 0.08 | 0.05 | 62 | 1015.7 |
| 20260507145031 | 14 | 360 | 1.6 | 6.4 | 0.00 | 0.08 | 0.05 | 62 | 1015.7 |
| 20260507144530 | 13 | 360 | 0.0 | 4.8 | 0.00 | 0.08 | 0.05 | 62 | 1015.6 |
| 20260507144028 | 14 | 360 | 0.0 | 4.8 | 0.00 | 0.08 | 0.05 | 65 | 1015.7 |
| 20260507143530 | 14 | 360 | 0.0 | 4.8 | 0.00 | 0.08 | 0.05 | 69 | 1015.9 |
| 20260507143025 | 13 | 360 | 0.0 | 4.8 | 0.00 | 0.08 | 0.05 | 64 | 1015.9 |
| 20260507142524 | 13 | 360 | 1.6 | 4.8 | 0.00 | 0.08 | 0.05 | 63 | 1016.0 |
| 20260507142022 | 13 | 360 | 0.0 | 4.8 | 0.00 | 0.08 | 0.05 | 65 | 1016.2 |
| 20260507141521 | 13 | 360 | 1.6 | 4.8 | 0.00 | 0.08 | 0.05 | 67 | 1016.2 |
| 20260507141021 | 13 | 360 | 0.0 | 3.2 | 0.00 | 0.08 | 0.05 | 68 | 1016.3 |
| 20260507140518 | 12 | 360 | 0.0 | 3.2 | 0.00 | 0.08 | 0.05 | 68 | 1016.4 |
| 20260507140019 | 12 | 360 | 0.0 | 3.2 | 0.00 | 0.08 | 0.05 | 68 | 1016.5 |
| 20260507135515 | 12 | 360 | 0.0 | 3.2 | 0.00 | 0.10 | 0.05 | 75 | 1016.6 |
| 20260507135014 | 12 | 360 | 0.0 | 0.0 | 0.00 | 0.10 | 0.05 | 79 | 1016.5 |
| 20260507134519 | 12 | 360 | 0.0 | 0.0 | 0.00 | 0.10 | 0.05 | 81 | 1016.6 |
| 20260507134014 | 12 | 360 | 0.0 | 0.0 | 0.00 | 0.10 | 0.05 | 84 | 1016.5 |
| 20260507133510 | 11 | 360 | 0.0 | 0.0 | 0.00 | 0.10 | 0.05 | 87 | 1016.5 |
| 20260507133009 | 10 | 360 | 0.0 | 1.6 | 0.00 | 0.10 | 0.05 | 88 | 1016.6 |
| 20260507132510 | 10 | 360 | 0.0 | 0.0 | 0.00 | 0.10 | 0.05 | 90 | 1016.6 |
| 20260507132008 | 10 | 360 | 0.0 | 3.2 | 0.00 | 0.10 | 0.05 | 90 | 1016.7 |
| 20260507131506 | 10 | 360 | 0.0 | 3.2 | 0.00 | 0.10 | 0.05 | 91 | 1016.7 |
| 20260507131005 | 10 | 360 | 0.0 | 1.6 | 0.00 | 0.10 | 0.05 | 92 | 1016.7 |
| 20260507130505 | 10 | 360 | 0.0 | 0.0 | 0.00 | 0.10 | 0.05 | 93 | 1016.7 |
| 20260507130005 | 10 | 360 | 0.0 | 0.0 | 0.00 | 0.15 | 0.05 | 94 | 1016.7 |
| 20260507125503 | 10 | 360 | 0.0 | 0.0 | 0.00 | 0.15 | 0.05 | 95 | 1016.6 |
| 20260507125001 | 10 | 360 | 0.0 | 0.0 | 0.00 | 0.15 | 0.05 | 95 | 1016.7 |
| 20260507124501 | 10 | 360 | 0.0 | 0.0 | 0.00 | 0.15 | 0.05 | 95 | 1016.7 |
| 20260507124100 | 9 | 360 | 0.0 | 0.0 | 0.00 | 0.15 | 0.05 | 95 | 1016.8 |
| 20260507123559 | 9 | 360 | 0.0 | 0.0 | 0.00 | 0.15 | 0.05 | 96 | 1016.8 |
| 20260507123101 | 9 | 360 | 0.0 | 0.0 | 0.00 | 0.15 | 0.05 | 96 | 1016.7 |
| 20260507122558 | 9 | 360 | 0.0 | 0.0 | 0.00 | 0.15 | 0.05 | 96 | 1016.7 |
| 20260507122059 | 9 | 360 | 0.0 | 0.0 | 0.00 | 0.15 | 0.05 | 96 | 1016.8 |
| 20260507121554 | 9 | 360 | 0.0 | 0.0 | 0.00 | 0.15 | 0.05 | 96 | 1016.8 |
| 20260507121053 | 9 | 360 | 0.0 | 0.0 | 0.00 | 0.15 | 0.05 | 96 | 1016.8 |
| 20260507120552 | 9 | 360 | 0.0 | 0.0 | 0.00 | 0.15 | 0.05 | 96 | 1016.8 |
| 20260507120050 | 9 | 360 | 0.0 | 0.0 | 0.00 | 0.15 | 0.05 | 96 | 1016.9 |
| 20260507115550 | 9 | 360 | 0.0 | 0.0 | 0.00 | 0.20 | 0.05 | 96 | 1016.8 |
| 20260507115049 | 9 | 360 | 0.0 | 0.0 | 0.00 | 0.20 | 0.05 | 96 | 1016.7 |
| 20260507114549 | 9 | 360 | 0.0 | 0.0 | 0.00 | 0.20 | 0.05 | 96 | 1016.7 |
| 20260507114048 | 8 | 360 | 0.0 | 0.0 | 0.00 | 0.20 | 0.05 | 96 | 1016.6 |
| 20260507113547 | 8 | 360 | 0.0 | 0.0 | 0.00 | 0.20 | 0.05 | 96 | 1016.4 |
| 20260507113046 | 8 | 360 | 0.0 | 0.0 | 0.00 | 0.20 | 0.05 | 96 | 1016.4 |
| 20260507112545 | 8 | 360 | 0.0 | 0.0 | 0.00 | 0.20 | 0.05 | 96 | 1016.3 |
| 20260507112044 | 8 | 360 | 0.0 | 0.0 | 0.00 | 0.20 | 0.05 | 96 | 1016.2 |
| 20260507111546 | 8 | 360 | 0.0 | 0.0 | 0.00 | 0.20 | 0.05 | 96 | 1016.2 |
| 20260507111042 | 8 | 360 | 0.0 | 0.0 | 0.00 | 0.20 | 0.05 | 96 | 1016.1 |
| 20260507110541 | 8 | 360 | 0.0 | 0.0 | 0.00 | 0.20 | 0.05 | 96 | 1016.0 |
| 20260507110039 | 8 | 360 | 0.0 | 0.0 | 0.00 | 0.20 | 0.05 | 96 | 1016.0 |
| 20260507105539 | 8 | 360 | 0.0 | 0.0 | 0.00 | 0.46 | 0.05 | 96 | 1016.0 |
| 20260507105039 | 8 | 360 | 0.0 | 0.0 | 0.00 | 0.46 | 0.05 | 96 | 1016.0 |
| 20260507104541 | 8 | 360 | 0.0 | 0.0 | 0.00 | 0.46 | 0.05 | 96 | 1015.7 |
| 20260507104037 | 8 | 360 | 0.0 | 0.0 | 0.00 | 0.46 | 0.05 | 96 | 1015.7 |
| 20260507103537 | 8 | 360 | 0.0 | 0.0 | 0.00 | 0.46 | 0.05 | 96 | 1015.7 |
| 20260507103038 | 8 | 360 | 0.0 | 0.0 | 0.00 | 0.46 | 0.05 | 96 | 1015.6 |
| 20260507102538 | 8 | 360 | 0.0 | 0.0 | 0.00 | 0.46 | 0.05 | 96 | 1015.6 |
| 20260507102037 | 8 | 360 | 0.0 | 0.0 | 0.00 | 0.46 | 0.05 | 96 | 1015.8 |
| 20260507101544 | 8 | 360 | 0.0 | 0.0 | 0.00 | 0.46 | 0.05 | 96 | 1015.7 |
| 20260507101039 | 8 | 360 | 0.0 | 0.0 | 0.00 | 0.46 | 0.05 | 96 | 1015.8 |
| 20260507100535 | 8 | 360 | 0.0 | 0.0 | 0.00 | 0.46 | 0.05 | 96 | 1015.8 |
| 20260507100037 | 8 | 360 | 0.0 | 0.0 | 0.00 | 0.46 | 0.05 | 96 | 1015.8 |
| 20260507095536 | 8 | 360 | 0.0 | 0.0 | 0.00 | 0.81 | 0.05 | 96 | 1015.8 |
| 20260507095035 | 8 | 360 | 0.0 | 0.0 | 0.00 | 0.81 | 0.05 | 96 | 1015.8 |
| 20260507094536 | 8 | 360 | 0.0 | 0.0 | 0.00 | 0.81 | 0.05 | 96 | 1015.7 |
| 20260507094034 | 8 | 360 | 0.0 | 0.0 | 0.00 | 0.81 | 0.05 | 96 | 1015.6 |
| 20260507093534 | 8 | 360 | 0.0 | 0.0 | 0.00 | 0.81 | 0.05 | 96 | 1015.5 |
| 20260507093039 | 8 | 360 | 0.0 | 0.0 | 0.00 | 0.81 | 0.05 | 96 | 1015.5 |
| 20260507092535 | 8 | 360 | 0.0 | 0.0 | 0.00 | 0.81 | 0.05 | 96 | 1015.5 |
| 20260507092034 | 8 | 360 | 0.0 | 0.0 | 0.00 | 0.81 | 0.05 | 96 | 1015.5 |
| 20260507091532 | 9 | 360 | 0.0 | 0.0 | 0.00 | 0.81 | 0.05 | 96 | 1015.4 |
| 20260507091031 | 9 | 360 | 0.0 | 0.0 | 0.00 | 0.81 | 0.05 | 96 | 1015.4 |
| 20260507090531 | 9 | 360 | 0.0 | 0.0 | 0.00 | 0.81 | 0.05 | 96 | 1015.4 |
| 20260507090032 | 9 | 360 | 0.0 | 0.0 | 0.00 | 0.81 | 0.05 | 96 | 1015.4 |
| 20260507085529 | 9 | 360 | 0.0 | 0.0 | 0.00 | 1.27 | 0.05 | 96 | 1015.2 |
| 20260507085030 | 9 | 360 | 0.0 | 0.0 | 0.00 | 1.27 | 0.05 | 96 | 1015.1 |
| 20260507084529 | 10 | 360 | 0.0 | 0.0 | 0.00 | 1.27 | 0.05 | 96 | 1015.2 |
| 20260507084035 | 10 | 360 | 0.0 | 0.0 | 0.00 | 1.27 | 0.05 | 96 | 1015.3 |
| 20260507083527 | 10 | 360 | 0.0 | 0.0 | 0.00 | 1.27 | 0.05 | 96 | 1015.4 |
| 20260507083036 | 10 | 360 | 0.0 | 0.0 | 0.00 | 1.27 | 0.05 | 96 | 1015.4 |
| 20260507082528 | 10 | 360 | 0.0 | 0.0 | 0.00 | 1.27 | 0.05 | 96 | 1015.5 |
| 20260507082027 | 10 | 360 | 0.0 | 0.0 | 0.00 | 1.27 | 0.05 | 96 | 1015.5 |
| 20260507081529 | 10 | 360 | 0.0 | 0.0 | 0.00 | 1.27 | 0.05 | 96 | 1015.4 |
| 20260507081027 | 10 | 360 | 0.0 | 0.0 | 0.00 | 1.27 | 0.05 | 96 | 1015.4 |
| 20260507080527 | 10 | 360 | 0.0 | 0.0 | 0.00 | 1.27 | 0.05 | 96 | 1015.4 |
| 20260507080025 | 10 | 360 | 0.0 | 0.0 | 0.00 | 1.27 | 0.05 | 96 | 1015.5 |
| 20260507075527 | 10 | 360 | 0.0 | 0.0 | 0.00 | 1.32 | 0.05 | 96 | 1015.4 |
| 20260507075025 | 10 | 360 | 0.0 | 0.0 | 0.00 | 1.32 | 0.05 | 96 | 1015.5 |
| 20260507074528 | 10 | 360 | 0.0 | 0.0 | 0.00 | 1.32 | 0.05 | 96 | 1015.5 |
| 20260507074025 | 10 | 360 | 0.0 | 0.0 | 0.00 | 1.32 | 0.05 | 96 | 1015.5 |
| 20260507073523 | 10 | 360 | 0.0 | 0.0 | 0.00 | 1.32 | 0.05 | 96 | 1015.5 |